Regional Weather Roundup
Issued by NWS

Home | Current Version | Previous Version | Graphics & Text | Print | Product List | Glossary On
Versions: 1 2 3 4 5 6 7 8 9 10 11 12 13 14 15 16 17 18 19 20 21 22 23 24 25 26 27 28 29 30 31 32 33 34 35 36 37 38 39 40 41 42 43 44 45 46 47 48 49 50
000
ASUS45 KBOI 030510
RWRID

IDAHO REGIONAL WEATHER ROUNDUP
NATIONAL WEATHER SERVICE BOISE ID
1100 PM MDT SUN AUG 02 2015

NOTE: "FAIR" INDICATES FEW OR NO CLOUDS BELOW 12000 FEET
WITH NO SIGNIFICANT WEATHER AND/OR OBSTRUCTIONS TO VISIBILITY

IDZ012-014-030600-
SOUTHWEST IDAHO


CITY           SKY/WX    TMP DP  RH WIND       PRES   REMARKS
BOISE          MOCLDY    85  44  23 CALM      29.77S
CALDWELL       MOCLDY    77  52  41 S5        29.76R
MOUNTAIN HOME  CLOUDY    83  38  20 W10       29.79R
$$

IDZ016-017-030600-
SOUTHCENTRAL IDAHO


CITY           SKY/WX    TMP DP  RH WIND       PRES   REMARKS
BURLEY         MOCLDY    70  50  49 S5        29.88S
JEROME         PTCLDY    78  42  27 SE3       29.89S
TWIN FALLS     MOCLDY    83  35  18 S12       29.86S
$$

IDZ019>023-030600-
SOUTHEAST IDAHO


CITY           SKY/WX    TMP DP  RH WIND       PRES   REMARKS
IDAHO FALLS    PTCLDY    61  49  64 CALM      29.95S
POCATELLO      CLEAR     69  40  34 NW3       29.93R
REXBURG        PTCLDY    65  44  46 NE7       29.97S
$$

IDZ006-010-011-018-031-032-030600-
CENTRAL IDAHO MOUNTAINS


CITY           SKY/WX    TMP DP  RH WIND       PRES   REMARKS
MCCALL         CLOUDY    79  22  12 N8        29.99R
HAILEY         CLEAR     70  46  43 NW9       30.02S
STANLEY          N/A     65  36  34 SE3       30.12S
SALMON         MOCLDY    75  39  27 SE5       29.90R
CHALLIS        MOCLDY    76  36  23 NE3       29.98R
$$

IDZ002-004-006-007-026-030600-
NORTHERN IDAHO


CITY           SKY/WX    TMP DP  RH WIND       PRES   REMARKS
LEWISTON       MOCLDY    87  26  11 S5        29.76S
LOWELL           N/A     71  51  49 CALM      29.80R
COEUR D`ALENE  CLEAR     73  46  38 E6        29.83S
MULLAN PASS    CLEAR     71  20  14 NW6       30.12S
$$



USA.gov is the U.S. government's official web portal to all federal, state and local government web resources and services.